Simultaneous Nadir Overpasses (SNOs) Predictions

Prediction of SNOs between GOES-16 and METOP-C Satellite Orbit:

Table of predicted SNOs for the next 14.0 days since TLE Epoch: 6/1/2024
Index Date Time (GOES-16) GOES-16 Lat,Lon METOP-C Lat,Lon Distance(km) Time Diff (sec)
1 06/02/2024 14:31:10 0.05, -75.21 0.14, -75.61 45.10 80
2 06/05/2024 02:29:33 -0.05, -75.22 -0.06, -75.21 1.99 80
3 06/07/2024 14:30:26 0.04, -75.25 -0.09, -74.78 53.79 80
4 06/09/2024 02:49:28 -0.03, -75.26 -0.96, -79.37 469.04 80
5 06/10/2024 02:26:09 -0.03, -75.27 0.18, -74.39 101.52 80
6 06/11/2024 14:45:00 0.03, -75.30 0.85, -78.94 414.53 80
7 06/12/2024 14:27:02 0.02, -75.32 -0.30, -73.95 156.71 80
8 06/14/2024 02:46:03 -0.02, -75.35 -0.74, -78.54 364.19 80
9 06/15/2024 02:22:45 -0.02, -75.37 0.41, -73.56 207.48 80
